Probability
24 17 13 10 4 1 0 0 0 0 0 0 0 0 0 0 0 0 0 0 0 0 0 0 0 0 0 0 0 0 0 0 0 0 0 0 0 0 0 0 0 0 0
29 19 13 10 5 2 1 0 0 0 0 0 0 0 0 0 0 0 0 0 0 0 0 0 0 0 0 0 0 0 0 0 0 0 0 0 0 0 0 0 0 0 0
30 19 12 10 6 4 2 1 0 0 0 0 0 0 0 0 0 0 0 0 0 0 0 0 0 0 0 0 0 0 0 0 0 0 0 0 0 0 0 0 0 0 0
21 13 9 10 8 5 3 1 0 0 0 0 0 0 0 0 0 0 0 0 0 0 0 0 0 0 0 0 0 0 0 0 0 0 0 0 0 0 0 0 0 0 0
12 8 8 10 9 5 2 1 0 1 1 1 0 0 0 0 0 0 0 0 0 0 0 0 0 0 0 0 0 0 0 0 0 0 0 0 0 0 0 0 0 0 0
12 9 8 10 9 5 2 0 1 2 2 2 1 0 0 0 0 0 0 0 0 0 0 0 0 0 0 0 0 0 0 0 0 0 0 0 0 0 0 0 0 0 0
24 19 13 13 12 8 4 2 1 3 3 4 3 1 1 1 0 0 1 1 1 1 0 1 1 1 1 0 0 0 0 0 0 0 0 2 2 1 0 0 0 0 0
42 32 21 18 16 11 8 5 3 4 4 5 5 4 3 3 1 1 2 3 4 3 2 2 2 2 2 1 0 0 0 0 0 0 1 6 10 7 2 0 0 0 0
57 42 25 20 17 13 10 9 7 7 7 6 5 5 5 4 4 4 7 9 10 10 9 6 5 4 4 2 1 0 0 0 0 0 3 12 21 19 9 3 0 0 0
66 48 29 22 19 12 11 14 16 15 14 12 10 9 8 6 8 13 18 23 26 25 23 16 11 9 8 7 4 3 1 0 0 0 4 20 37 35 21 10 3 0 0
68 52 36 31 24 13 15 26 30 26 25 23 24 26 23 14 13 23 35 47 50 46 41 33 25 21 17 12 9 9 7 2 0 0 7 31 55 54 36 20 9 2 1
64 53 48 47 33 16 25 44 42 38 43 41 41 51 48 32 24 34 55 70 72 67 59 52 44 36 25 14 15 19 15 6 2 2 13 43 69 69 51 31 16 7 5
56 53 58 61 46 29 40 57 51 49 64 62 58 68 71 58 47 53 72 84 84 80 74 66 59 48 31 20 21 27 21 10 4 4 18 48 72 74 60 41 23 14 12
54 54 63 71 64 52 56 65 61 62 74 76 75 79 84 81 75 75 83 89 89 86 80 71 65 57 42 28 25 26 23 15 8 7 21 47 65 67 59 43 28 17 14
62 64 72 80 79 73 72 74 74 74 77 81 83 86 88 90 89 87 88 90 90 88 81 72 67 64 53 39 27 21 20 18 12 12 25 43 54 55 51 41 27 16 12
76 78 84 87 87 86 83 81 80 80 80 81 83 86 87 88 90 90 89 88 87 84 79 72 68 65 59 49 34 21 18 18 16 19 29 40 45 42 39 34 25 16 11
88 91 93 92 91 91 90 86 83 82 81 81 83 84 83 83 84 86 87 85 80 75 72 68 65 61 56 48 36 24 21 22 21 23 30 38 40 33 27 25 23 17 12
95 96 96 94 93 93 92 88 83 80 77 76 77 77 76 74 73 75 77 74 68 64 60 57 56 52 45 37 30 25 26 28 25 22 26 34 37 32 25 23 21 19 15
91 92 92 92 93 92 89 84 79 75 70 67 68 69 69 67 65 65 64 60 55 53 50 45 44 42 35 28 24 23 26 28 24 19 19 24 28 29 27 23 21 18 15
80 83 85 87 89 87 83 81 78 73 67 62 62 62 60 57 55 55 53 48 44 40 38 36 34 32 29 25 21 20 22 23 23 20 17 14 16 20 22 23 22 18 14
67 71 75 78 80 77 73 73 74 71 65 58 54 51 46 40 39 39 40 39 34 27 26 26 25 23 22 21 19 17 16 17 19 20 17 12 10 12 14 20 24 20 15
47 50 56 61 61 58 55 55 57 58 54 49 42 37 31 26 25 25 28 29 25 19 17 18 17 15 15 16 14 12 11 11 13 14 14 13 12 11 11 15 20 20 18
25 27 33 38 37 36 36 35 37 38 38 36 32 28 23 19 18 20 21 21 20 16 13 14 13 12 13 13 11 9 10 11 9 9 10 11 13 13 10 10 14 18 19
11 13 19 23 23 24 25 24 24 23 23 22 22 22 19 15 14 14 15 16 17 16 13 12 12 13 15 14 12 12 13 12 8 7 8 9 11 11 8 8 10 14 17
4 6 14 21 23 25 26 25 22 19 16 15 14 15 14 11 10 10 10 12 13 13 13 12 13 16 17 17 19 20 18 14 10 7 6 7 8 7 8 8 9 13 16
1 4 13 24 29 31 33 32 28 23 18 15 13 12 10 8 8 8 8 9 9 10 12 12 13 17 19 22 25 27 23 17 12 8 5 5 6 7 9 10 10 13 16
Wind_Speed
18 19 20 17 15 14 14 14 14 13 12 12 11 11 11 10 10 10 10 10 10 10 10 9 9 9 9 10 10 11 11 12 12 13 13 13 12 11 9 9 11 13 14
22 19 20 17 15 14 14 13 13 13 12 12 11 11 11 10 10 10 9 9 9 9 9 9 9 9 9 10 10 10 10 10 10 11 12 12 11 10 8 7 11 11 14
22 19 18 17 15 14 13 13 13 13 12 12 11 11 11 10 10 9 9 8 8 9 9 9 9 9 9 9 9 9 8 8 8 9 10 9 9 10 11 14 16 14 13
21 17 16 18 15 14 14 13 13 13 12 12 11 11 10 10 9 9 8 8 7 8 8 8 8 8 8 8 8 7 6 6 6 6 5 5 8 11 11 12 12 12 12
19 17 18 18 16 15 14 13 12 12 12 11 11 10 10 9 9 9 8 8 7 8 8 8 8 8 8 8 7 6 5 4 5 7 3 5 8 11 10 10 10 11 11
19 18 18 18 16 14 14 13 12 11 11 11 10 10 9 9 9 8 8 7 7 7 8 7 8 8 8 7 7 6 5 5 6 6 3 8 9 11 11 10 9 9 9
19 18 17 17 16 15 13 12 12 11 11 10 10 10 9 9 8 8 8 8 7 7 7 8 8 8 8 8 7 7 7 7 7 5 3 7 10 13 12 10 9 9 9
20 19 16 17 16 15 13 12 12 11 11 10 10 10 9 9 8 8 8 8 8 8 8 8 8 9 8 8 8 8 8 9 9 8 4 8 15 15 13 11 10 9 10
20 19 15 15 14 14 13 13 12 11 11 10 10 10 9 9 9 9 9 9 10 9 9 9 9 10 10 10 10 10 10 11 9 7 5 7 17 16 15 13 11 10 10
19 18 15 14 13 12 12 13 13 12 11 11 11 11 10 10 10 11 10 11 11 11 11 11 11 11 11 11 12 12 12 10 9 10 5 8 20 18 17 14 13 12 11
15 15 15 15 13 12 13 13 13 12 12 11 10 12 10 9 10 11 14 14 15 13 13 12 12 12 11 12 14 14 12 7 10 8 5 12 20 19 18 16 14 13 13
12 13 12 14 12 12 10 11 9 10 10 10 8 10 9 8 7 9 13 17 17 16 15 14 14 13 11 9 13 15 8 10 10 7 5 16 20 19 18 17 15 14 14
8 9 10 11 8 8 5 8 6 5 7 9 9 8 7 6 5 5 4 9 11 13 10 11 12 9 9 7 6 8 10 9 7 6 5 17 19 20 19 17 16 15 15
8 7 8 9 6 2 1 3 3 3 4 5 7 8 6 4 4 3 2 4 6 5 6 6 6 9 9 8 7 8 10 7 5 4 6 15 17 18 18 17 17 16 15
6 5 5 6 5 2 2 2 1 1 1 1 1 3 3 3 3 4 2 2 3 4 5 6 5 6 7 7 7 7 7 7 7 5 4 15 18 18 18 18 18 17 17
5 4 5 6 5 3 2 1 2 3 2 2 1 1 2 2 2 3 3 3 3 3 3 4 5 4 5 5 6 7 6 6 6 7 6 10 17 18 17 17 18 18 18
5 6 6 5 5 4 1 1 2 2 3 2 2 2 2 2 3 3 4 4 4 4 4 4 5 4 5 6 7 8 6 7 8 8 6 6 9 15 18 18 18 18 18
9 9 8 6 6 4 3 2 2 3 3 3 3 3 3 3 4 4 4 5 5 4 3 4 5 5 5 5 6 6 6 6 9 8 6 6 6 8 14 19 18 18 18
10 9 9 8 6 4 2 1 2 2 2 3 3 2 3 4 5 4 4 5 5 4 4 6 5 4 5 6 6 6 6 6 7 9 8 8 7 6 6 14 19 18 19
9 8 7 6 5 4 2 2 2 2 2 2 2 3 4 4 5 5 4 5 5 5 5 6 5 4 4 4 6 6 5 6 6 7 8 8 7 8 8 9 11 13 18
7 7 6 5 4 3 3 3 3 3 3 3 2 2 3 4 5 4 4 4 4 4 5 6 5 5 4 4 3 4 5 6 6 5 5 5 7 8 8 8 8 7 9
6 5 4 4 4 3 3 2 2 2 3 2 2 2 3 4 4 4 3 3 3 4 5 5 5 3 3 4 3 3 3 4 5 8 6 6 6 5 6 8 7 6 5
5 4 5 4 3 3 4 3 3 2 2 2 2 2 2 3 3 3 4 3 3 3 3 5 4 4 4 3 5 4 3 2 3 4 6 6 4 3 3 4 7 7 7
4 4 3 2 2 3 4 4 5 5 4 4 3 2 3 3 3 2 3 3 3 2 2 3 3 3 3 3 3 3 2 0 1 1 2 4 5 5 4 4 5 6 7
2 2 2 2 0 2 3 4 5 5 5 5 5 5 4 3 2 1 1 2 3 3 3 3 3 2 2 3 3 2 3 2 3 2 2 3 3 4 4 4 3 3 5
2 1 1 0 1 2 3 4 5 6 6 7 7 6 5 3 2 1 1 1 2 2 3 3 3 3 3 3 3 2 2 2 2 2 3 3 4 4 5 4 4 3 3
Wind_Direction
122 133 137 135 134 133 136 140 142 139 136 133 130 127 123 119 116 113 110 109 108 106 103 102 103 100 94 89 86 87 88 89 92 95 95 95 94 92 92 103 112 99 104
124 134 137 136 136 135 136 140 141 142 140 138 136 135 132 129 127 124 121 119 118 114 109 106 105 104 104 102 101 101 102 104 107 111 112 106 99 89 78 81 103 109 110
123 133 137 136 136 136 136 139 142 144 145 143 142 142 140 139 137 134 132 129 125 120 117 115 112 111 112 112 113 114 116 121 128 136 146 128 111 96 88 93 103 110 111
126 138 139 138 138 138 137 139 143 146 148 148 148 147 146 146 145 143 142 140 136 129 126 126 125 122 122 123 125 127 134 144 157 176 192 141 127 110 104 105 109 113 115
131 136 135 142 140 140 140 141 143 147 150 151 151 152 152 152 152 151 151 151 148 142 139 139 139 136 136 138 140 146 162 182 201 229 210 123 112 126 121 119 119 121 122
134 132 139 144 143 143 144 144 145 149 152 154 155 158 159 160 161 160 160 159 158 154 152 153 153 152 152 154 159 169 190 216 237 238 202 131 126 140 136 137 136 134 133
134 131 141 146 146 147 148 149 151 153 156 159 161 164 167 168 170 171 171 172 171 168 168 168 168 168 170 173 179 191 210 230 248 259 195 133 137 148 149 152 153 150 148
131 132 140 147 149 151 154 157 159 161 165 168 171 174 177 179 184 186 185 185 184 184 184 183 183 184 186 189 194 203 218 239 239 242 202 143 148 155 158 162 165 165 164
131 132 144 149 153 157 161 165 168 171 175 178 180 183 187 190 194 198 199 198 197 196 196 196 195 197 199 201 206 212 223 238 264 274 233 152 157 160 164 170 176 178 176
131 138 149 152 156 162 167 173 176 180 184 188 191 193 198 202 207 209 208 205 205 203 203 205 207 208 208 209 212 217 225 239 250 259 248 166 163 165 169 176 184 188 188
136 142 153 153 161 171 174 173 179 187 192 195 199 203 205 213 211 208 217 206 205 207 210 213 215 217 216 217 219 219 222 230 238 242 241 173 169 170 173 180 188 194 196
142 148 155 154 167 180 181 158 182 189 189 201 203 196 204 221 232 224 202 202 203 206 211 217 220 221 221 224 220 218 218 224 242 241 218 173 173 174 177 182 191 198 201
149 155 151 149 166 181 173 156 191 194 176 196 216 199 202 217 230 240 198 190 200 207 212 214 217 220 221 223 220 201 215 223 225 239 205 177 177 178 181 185 193 200 205
160 160 152 142 149 187 167 154 185 199 174 190 198 205 204 209 240 246 232 186 193 204 210 215 208 211 222 228 228 211 210 223 231 222 199 182 182 183 185 191 196 203 208
151 156 131 124 128 113 34 3 329 311 286 221 188 203 213 207 225 251 259 236 224 215 211 216 217 212 219 227 232 229 221 224 241 236 195 187 188 191 191 196 201 207 211
131 136 117 110 109 101 83 353 328 326 340 317 319 251 238 245 235 244 258 254 245 238 231 220 222 219 225 223 228 230 230 224 235 240 215 197 193 193 197 201 205 210 214
87 86 86 101 97 102 94 339 317 314 313 320 322 318 292 267 262 252 249 252 248 239 234 230 237 226 227 225 224 227 225 226 230 231 221 199 196 200 202 204 207 210 214
61 65 62 61 72 68 58 20 324 325 327 326 322 317 308 295 276 265 255 253 246 238 236 230 230 229 228 226 227 227 222 219 224 225 222 213 202 203 208 210 209 210 214
62 63 62 55 50 42 28 353 305 304 297 297 307 311 313 297 288 274 261 259 255 245 241 246 229 218 233 227 229 223 218 216 218 223 218 217 210 207 199 207 210 210 214
67 64 62 65 49 21 20 348 321 323 323 322 327 329 329 312 298 287 269 261 256 246 239 239 239 225 229 224 240 239 219 215 207 209 212 213 204 206 209 204 200 211 215
76 73 68 60 50 22 19 353 347 345 336 330 324 346 327 310 300 289 284 278 270 256 245 243 238 227 226 228 236 253 238 220 206 206 205 213 204 199 205 196 184 194 205
84 82 83 67 47 23 14 332 304 305 296 307 339 334 320 312 308 299 295 284 276 266 263 259 242 225 233 218 213 234 234 217 210 206 194 205 213 193 195 195 186 189 193
90 74 69 55 37 16 348 327 334 320 304 329 333 331 340 323 310 306 308 294 281 267 257 256 242 220 231 227 214 219 226 211 194 195 196 191 179 176 190 192 187 187 196
118 112 108 86 33 4 342 347 338 325 329 335 332 334 334 316 306 305 316 323 314 298 275 262 242 232 240 249 244 240 251 344 225 169 203 177 171 180 199 206 195 186 189
146 148 153 152 88 337 327 320 320 321 326 326 327 317 310 294 276 289 333 348 349 332 325 320 315 263 245 248 254 241 237 227 224 200 199 179 182 182 187 193 187 190 189
233 268 290 134 290 293 298 304 306 307 308 307 303 297 294 285 280 268 268 18 346 337 336 331 320 284 272 277 278 267 244 224 222 215 189 192 192 189 178 173 179 183 191